Location: Rancho Del Sol Observatory
(38.7214°N, 120.6350°W)
Time: 14:08:17
(UTC-08:00)

Courier 1B - Pass Details

Date: 24 January 2020
Orbit: 962 x 1209 km, 28.3° (Epoch: 19 February)

Event Time Altitude Azimuth Distance (km) Brightness Sun altitude
Exits shadow 03:29:27 23° 128° (SE) 2,251 9.6 -43.8°
Drops below altitude 10° 03:32:47 10° 108° (ESE) 3,094 10.6 -43.2°
Sets 03:36:01 0° 98° (E) 4,081 11.5 -42.5°
